Location: Cassagne
(43.1218°N, 0.9901°E)
Time: 09:35:07
(UTC+00:00)

Cosmos 1605 Rocket - Pass Details

Date: 17 February 2020
Orbit: 944 x 1007 km, 82.9° (Epoch: 03 April)

Event Time Altitude Azimuth Distance (km) Brightness Sun altitude
Rises 04:04:57 0° 355° (N) 3,697 7.1 -31.0°
Reaches altitude 10° 04:07:33 10° 360° (N) 2,735 6.5 -30.5°
Maximum altitude 04:13:42 57° 79° (ENE) 1,126 4.5 -29.4°
Drops below altitude 10° 04:19:43 10° 157° (SSE) 2,677 6.4 -28.3°
Sets 04:22:14 0° 161° (SSE) 3,611 7.1 -27.9°
